This demonstration page uses our WeatherBlox Daily Observations layout. Learn more.

Left ArrowRight Arrow

40.92945, -100.16068

Hourly Observations for November 21, 2015

Temp ( °F °C ) Dew Point ( °F °C ) Humidity (%) Winds ( mph kmh ) Pressure ( in mb ) Visibility ( mi km ) Precip ( " mm )
12:15 am 00:15 Cloudy 29 -1.8 22 -5.5 76 76 N 13 20 30.53 1034 10 16 N/A
12:35 am 00:35 Cloudy 29 -1.8 23 -5.2 78 78 NNW 12 19 30.53 1034 10 16 N/A
12:55 am 00:55 Mostly Cloudy 28 -2.1 21 -6.1 74 74 N 12 19 30.53 1034 10 16 N/A
1:15 am 01:15 Mostly Cloudy 27 -2.6 20 -6.5 75 75 NNW 12 19 30.53 1034 10 16 N/A
1:35 am 01:35 Partly Cloudy 27 -3 20 -6.4 78 78 N 8 13 30.53 1034 10 16 N/A
1:55 am 01:55 Cloudy 27 -2.8 21 -5.9 79 79 N 8 13 30.53 1034 10 16 N/A
2:15 am 02:15 Cloudy 27 -2.9 21 -6 79 79 NNW 6 9 30.53 1034 10 16 N/A
2:35 am 02:35 Mostly Cloudy 26 -3.6 21 -6 84 84 WNW 5 7 30.53 1034 10 16 N/A
2:55 am 02:55 Cloudy 27 -2.9 22 -5.3 84 84 WNW 6 9 30.53 1034 10 16 N/A
3:15 am 03:15 Cloudy 28 -2.2 23 -5 81 81 WNW 8 13 30.53 1034 10 16 N/A
3:35 am 03:35 Cloudy 28 -2.1 23 -4.8 82 82 WNW 8 13 30.53 1034 10 16 N/A
3:55 am 03:55 Cloudy 28 -2 24 -4.3 84 84 WNW 12 19 30.53 1034 10 16 N/A
4:15 am 04:15 Mostly Cloudy 26 -3.3 21 -6 82 82 NNW 15 24 30.53 1034 10 16 N/A
4:35 am 04:35 Mostly Cloudy 26 -3.3 21 -6 82 82 NNW 10 17 30.53 1034 10 16 N/A
4:55 am 04:55 Cloudy 26 -3.5 21 -6.2 82 82 NW 8 13 30.53 1034 10 16 N/A
5:15 am 05:15 Cloudy 26 -3.4 20 -6.4 80 80 NW 10 17 30.53 1034 10 16 N/A
5:35 am 05:35 Cloudy 26 -3.2 19 -7 75 75 NW 9 15 30.53 1034 10 16 N/A
5:55 am 05:55 Partly Cloudy 25 -3.8 19 -7.4 76 76 NW 9 15 30.53 1034 10 16 N/A
6:15 am 06:15 Partly Cloudy 25 -4.1 18 -7.7 76 76 NNW 14 22 30.53 1034 10 16 N/A
6:35 am 06:35 Clear 24 -4.6 17 -8.2 76 76 NW 9 15 30.56 1035 10 16 N/A
6:55 am 06:55 Clear 22 -5.5 17 -8.4 80 80 NW 10 17 30.56 1035 10 16 N/A
7:15 am 07:15 Clear 22 -5.5 17 -8.5 80 80 NW 10 17 30.56 1035 10 16 N/A
7:35 am 07:35 Sunny 21 -6 16 -8.7 81 81 NW 10 17 30.56 1035 10 16 N/A
7:55 am 07:55 Sunny 21 -6 16 -8.8 81 81 NW 10 17 30.56 1035 10 16 N/A
8:15 am 08:15 Sunny 22 -5.5 17 -8.5 80 80 NW 10 17 30.56 1035 10 16 N/A
8:35 am 08:35 Sunny 24 -4.7 17 -8.3 76 76 NW 10 17 30.56 1035 10 16 N/A
8:55 am 08:55 Sunny 24 -4.3 17 -8.4 73 73 NW 12 19 30.53 1034 10 16 N/A
9:15 am 09:15 Sunny 25 -3.7 17 -8.3 71 71 NW 12 19 30.53 1034 10 16 N/A
9:35 am 09:35 Sunny 26 -3.3 16 -8.7 67 67 NW 12 19 30.56 1035 10 16 N/A
9:55 am 09:55 Sunny 27 -2.6 16 -9 62 62 NW 9 15 30.53 1034 10 16 N/A
10:15 am 10:15 Sunny 28 -2.3 15 -9.2 60 60 NNW 9 15 30.53 1034 10 16 N/A
10:35 am 10:35 Sunny 29 -1.6 14 -10 53 53 WNW 10 17 30.53 1034 10 16 N/A
10:55 am 10:55 Sunny 29 -1.5 15 -9.5 55 55 W 9 15 30.50 1033 10 16 N/A
11:15 am 11:15 Sunny 31 -0.8 15 -9.6 52 52 WNW 10 17 30.50 1033 10 16 N/A
11:35 am 11:35 Sunny 32 -0.2 14 -9.9 48 48 WNW 9 15 30.50 1033 10 16 N/A
11:55 am 11:55 Sunny 32 undefined 14 -10 47 47 W 8 13 30.48 1032 10 16 N/A
12:15 pm 12:15 Sunny 32 0.2 15 -9.4 49 49 WNW 6 9 30.48 1032 10 16 N/A
12:35 pm 12:35 Sunny 33 0.8 15 -9.6 46 46 W 9 15 30.42 1030 10 16 N/A
12:55 pm 12:55 Sunny 34 1 14 -10 44 44 WSW 8 13 30.42 1030 10 16 N/A
1:15 pm 13:15 Sunny 35 1.5 13 -10.3 42 42 WSW 10 17 30.39 1029 10 16 N/A
1:35 pm 13:35 Sunny 35 1.6 13 -10.7 40 40 WSW 9 15 30.39 1029 10 16 N/A
1:55 pm 13:55 Sunny 35 1.8 12 -11.1 38 38 W 12 19 30.36 1028 10 16 N/A
2:15 pm 14:15 Sunny 35 1.7 13 -10.3 41 41 W 10 17 30.36 1028 10 16 N/A
2:35 pm 14:35 Sunny 36 2.2 14 -9.9 41 41 WSW 13 20 30.33 1027 10 16 N/A
2:55 pm 14:55 Sunny 36 2.1 16 -9 44 44 WSW 10 17 30.33 1027 10 16 N/A
3:15 pm 15:15 Sunny 36 2.2 17 -8.1 47 47 SW 13 20 30.33 1027 10 16 N/A
3:35 pm 15:35 Sunny 36 2.1 17 -8.2 47 47 SW 13 20 30.30 1026 10 16 N/A
3:55 pm 15:55 Sunny 35 1.9 18 -8 48 48 SW 13 20 30.30 1026 10 16 N/A
4:15 pm 16:15 Sunny 35 1.5 18 -7.7 51 51 WSW 9 15 30.30 1026 10 16 N/A
4:35 pm 16:35 Sunny 34 1.3 19 -7.4 53 53 SW 10 17 30.27 1025 10 16 N/A
4:55 pm 16:55 Sunny 34 1 19 -7.5 53 53 SW 10 17 30.27 1025 10 16 N/A
5:15 pm 17:15 Sunny 33 0.6 19 -7.1 57 57 SW 9 15 30.27 1025 10 16 N/A
5:35 pm 17:35 Clear 32 undefined 20 -6.5 62 62 SW 12 19 30.27 1025 10 16 N/A
5:55 pm 17:55 Clear 31 -0.3 21 -6 66 66 SW 13 20 30.24 1024 10 16 N/A
6:15 pm 18:15 Clear 31 -0.3 22 -5.8 67 67 SW 10 17 30.24 1024 10 16 N/A
6:35 pm 18:35 Clear 31 -0.5 22 -5.7 68 68 SW 12 19 30.24 1024 10 16 N/A
6:55 pm 18:55 Clear 30 -0.9 22 -5.7 70 70 SW 8 13 30.24 1024 10 16 N/A
7:15 pm 19:15 Clear 30 -1.1 22 -5.7 71 71 WSW 6 9 30.24 1024 10 16 N/A
7:35 pm 19:35 Clear 30 -1 22 -5.7 71 71 SW 9 15 30.24 1024 10 16 N/A
7:55 pm 19:55 Clear 30 -1 22 -5.6 71 71 SW 12 19 30.21 1023 10 16 N/A
8:15 pm 20:15 Clear 31 -0.7 23 -5.2 72 72 WSW 7 11 30.21 1023 10 16 N/A
8:35 pm 20:35 Clear 30 -1 23 -5 75 75 WSW 5 7 30.21 1023 10 16 N/A
8:55 pm 20:55 Clear 30 -1.1 24 -4.7 77 77 WSW 6 9 30.21 1023 10 16 N/A
9:15 pm 21:15 Clear 29 -1.5 23 -4.9 78 78 WSW 5 7 30.21 1023 10 16 N/A
9:35 pm 21:35 Clear 28 -2 23 -4.8 81 81 WSW 5 7 30.24 1024 10 16 N/A
9:55 pm 21:55 Clear 29 -1.7 24 -4.5 81 81 W 3 6 30.24 1024 10 16 N/A
10:15 pm 22:15 Clear 26 -3.2 22 -5.5 84 84 N N/A 30.24 1024 10 16 N/A
10:35 pm 22:35 Clear 27 -2.6 24 -4.5 87 87 WSW 5 7 30.24 1024 10 16 N/A
10:55 pm 22:55 Clear 26 -3.1 23 -5.1 86 86 N N/A 30.24 1024 10 16 N/A
11:15 pm 23:15 Clear 27 -3 24 -4.6 89 89 N N/A 30.21 1023 10 16 N/A
11:35 pm 23:35 Clear 25 -4.1 22 -5.6 89 89 W 5 7 30.21 1023 10 16 N/A
11:55 pm 23:55 Clear 25 -4 22 -5.5 89 89 WNW 5 7 30.21 1023 10 16 N/A

Powered by AerisWeather